Simultaneous Nadir Overpasses (SNOs) Predictions

Prediction of SNOs between FY3D and AQUA Satellite Orbit:

Table of predicted SNOs for the next 14.0 days since TLE Epoch: 11/20/2021
Index Date (FY3D) Time (FY3D) Lat,Lon (FY3D) SZA (FY3D ) Date (AQUA) Time (AQUA) Lat,Lon (AQUA) SZA (AQUA ) Distance(km) Time Diff (sec)
1 11/20/2021 17:08:41 -70.27, 103.12 89.95 11/20/2021 17:08:52 -70.27, 103.10 89.95 1.09 11
2 11/20/2021 17:58:39 67.61, -85.90 87.52 11/20/2021 17:57:32 67.60, -85.85 87.50 2.12 67
3 11/23/2021 07:45:58 -72.20,-119.41 87.49 11/23/2021 07:47:04 -72.20,-119.42 87.49 0.13 66
4 11/23/2021 08:36:00 69.82, 51.96 90.18 11/23/2021 08:35:48 69.82, 51.98 90.18 0.87 12
5 11/25/2021 23:13:21 71.35,-169.72 92.19 11/25/2021 23:13:52 71.35,-169.71 92.18 0.44 31
6 11/26/2021 00:03:09 -68.37, 2.11 90.70 11/26/2021 00:02:23 -68.37, 2.11 90.71 0.28 46
7 11/28/2021 13:50:43 72.27, -30.69 93.57 11/28/2021 13:51:45 72.27, -30.69 93.57 0.17 62
8 11/28/2021 14:40:48 -70.20, 140.24 88.47 11/28/2021 14:40:32 -70.20, 140.30 88.48 2.57 16
9 12/01/2021 04:33:19 80.62, 26.07 110.36 12/01/2021 04:34:32 81.26, 24.51 110.67 75.56 73
10 12/01/2021 05:18:11 -70.59, -79.68 87.66 12/01/2021 05:18:14 -70.59, -79.67 87.67 0.49 3
11 12/01/2021 06:07:07 64.55, 95.12 86.58 12/01/2021 06:05:54 64.55, 94.91 86.55 9.72 73
12 12/03/2021 19:55:40 -70.60, 60.94 87.28 12/03/2021 19:55:50 -70.61, 60.90 87.27 1.65 10



Historial Predications of SNOs between FY3D and AQUA
